Location: Boston
(42.3580°N, 71.0600°W)
Time: 22:12:07
(UTC-04:00)

Envisat - Pass Details

Date: 11 October 2017
Orbit: 764 x 766 km, 98.2° (Epoch: 17 October)

Event Time Altitude Azimuth Distance (km) Brightness Sun altitude
Exits shadow 22:10:56 10° 282° (WNW) 2,279 6.0 -43.4°
Drops below altitude 10° 22:11:16 10° 286° (WNW) 2,305 6.0 -43.5°
Sets 22:15:45 0° 324° (NW) 3,239 7.0 -44.1°
